DW8661 Madrid ES current weather conditions

sailwx.info

Wind from 213 at 0 knots

Air temperature 15.0° C
Dewpoint 0.4° C

Last reported at 2020-Feb-26 14:45 UTC.
Time now 2020-Feb-26 15:30 UTC

Location: N 40°29' W 003°43'.
View on Google Maps.

See reports from other nearby stations

  
Tides and Currents Weather Stations Pressure Air Temp Water Temp Dewpoint Dewpoint Depression Visibility Wind Speed Wind Dir Waves Ship Positions
date/time (UTC)wind fromknots sea level pressurealtimeterstation pressurevisibilityair tempwater tempwave heightnotes
2020-Feb-26 14:45 213 0 15.0
2020-Feb-26 14:30 215 0 15.0
2020-Feb-26 14:15 202 0 15.0
2020-Feb-26 13:45 236 0 14.4
2020-Feb-26 13:30 330 0 13.9
2020-Feb-26 13:15 107 0 14.4
2020-Feb-26 12:45 238 1 13.9
2020-Feb-26 12:30 306 1 13.3
2020-Feb-26 12:15 336 12.8
2020-Feb-26 11:45 203 12.8
2020-Feb-26 11:30 018 12.2
2020-Feb-26 11:16 194 12.2
2020-Feb-26 10:46 030 1 11.1
2020-Feb-26 10:31 302 0 11.1
2020-Feb-26 10:16 321 0 10.6
2020-Feb-26 09:46 173 0 10.0
2020-Feb-26 09:32 306 0 9.4
2020-Feb-26 09:16 023 0 8.9
2020-Feb-26 08:45 138 1 7.8
2020-Feb-26 08:31 340 0 7.8
2020-Feb-26 08:16 257 0 7.2
2020-Feb-26 08:00 222 7.2
2020-Feb-26 07:45 221 6.7
2020-Feb-26 07:30 321 6.1
2020-Feb-26 07:15 173 6.1
2020-Feb-26 06:45 215 1 6.1
2020-Feb-26 06:30 210 0 6.1
2020-Feb-26 06:15 355 0 6.1
2020-Feb-26 05:45 090 1 6.7
2020-Feb-26 05:16 167 0 7.2
2020-Feb-26 04:46 330 0 7.8
2020-Feb-26 04:31 293 7.8
2020-Feb-26 04:18 321 0 8.3
2020-Feb-26 03:46 347 4 8.9
2020-Feb-26 03:32 322 3 8.9
2020-Feb-26 03:16 355 2 9.4
2020-Feb-26 02:46 349 1 9.4
2020-Feb-26 02:31 292 0 9.4
2020-Feb-26 01:45 193 0 10.0
2020-Feb-26 01:31 319 0 10.6
2020-Feb-26 01:16 235 0 10.6
2020-Feb-26 00:46 046 1 11.1
2020-Feb-26 00:31 342 1 11.1
2020-Feb-26 00:18 013 0 11.1
2020-Feb-25 23:46 223 1 11.1
2020-Feb-25 23:30 171 0 11.1
2020-Feb-25 23:16 199 11.1
2020-Feb-25 22:45 230 11.1
2020-Feb-25 22:31 211 0 11.1
2020-Feb-25 22:15 309 11.7
2020-Feb-25 21:45 287 1 11.7
2020-Feb-25 21:30 269 11.7
2020-Feb-25 21:16 188 0 11.7
2020-Feb-25 20:45 207 1 12.2
2020-Feb-25 20:31 151 2 12.8
2020-Feb-25 20:16 021 2 12.8
2020-Feb-25 19:46 344 0 12.8
2020-Feb-25 19:30 173 1 12.8
2020-Feb-25 19:16 277 0 13.3
2020-Feb-25 18:45 022 0 13.3
2020-Feb-25 18:31 211 13.3
2020-Feb-25 18:15 322 13.9
2020-Feb-25 17:46 173 0 14.4
2020-Feb-25 17:30 199 0 14.4
2020-Feb-25 17:15 311 0 14.4
2020-Feb-25 16:45 263 1 15.0
2020-Feb-25 16:31 311 1 15.0
2020-Feb-25 16:15 340 1 15.0
2020-Feb-25 15:46 345 3 15.0
2020-Feb-25 15:30 025 5 14.4
2020-Feb-25 15:16 322 3 15.0
2020-Feb-25 14:45 231 3 15.6
2020-Feb-25 14:31 209 3 15.6
2020-Feb-25 14:16 236 1 15.6
2020-Feb-25 13:45 200 0 16.1
2020-Feb-25 13:30 340 1 15.6
2020-Feb-25 13:15 305 1 16.1
2020-Feb-25 12:46 038 0 16.1
2020-Feb-25 12:30 310 0 16.7
2020-Feb-25 12:15 229 0 17.2
2020-Feb-25 11:45 148 0 15.6
2020-Feb-25 11:30 329 0 15.6
2020-Feb-25 11:16 237 15.6
2020-Feb-25 10:46 342 2 15.6
2020-Feb-25 10:31 033 2 15.6
2020-Feb-25 10:15 163 0 15.0
2020-Feb-25 09:45 147 0 12.8
2020-Feb-25 09:30 187 0 12.8
2020-Feb-25 09:15 211 0 12.2
2020-Feb-25 08:45 322 0 11.1
2020-Feb-25 08:16 225 8.3
2020-Feb-25 07:46 250 0 6.7
2020-Feb-25 07:31 250 8.3
2020-Feb-25 07:18 180 8.3
2020-Feb-25 06:45 179 7.8
2020-Feb-25 06:31 179 7.2
2020-Feb-25 06:16 179 7.2
2020-Feb-25 05:45 179 7.8
2020-Feb-25 05:31 179 7.2
2020-Feb-25 05:17 179 6.7
2020-Feb-25 04:48 180 7.2
2020-Feb-25 04:31 179 6.1
2020-Feb-25 04:16 180 6.1
2020-Feb-25 03:47 179 7.2
2020-Feb-25 03:31 178 8.3
2020-Feb-25 03:16 178 8.9
2020-Feb-25 02:46 178 9.4
2020-Feb-25 02:30 179 9.4
2020-Feb-25 02:16 180 10.0
2020-Feb-25 01:46 178 9.4
2020-Feb-25 01:31 179 9.4
2020-Feb-25 01:16 179 8.9
2020-Feb-25 00:45 179 9.4
2020-Feb-25 00:30 178 10.6
2020-Feb-25 00:15 179 11.1
2020-Feb-24 23:45 179 11.1
2020-Feb-24 23:30 222 10.6
2020-Feb-24 23:15 223 10.6
2020-Feb-24 22:45 222 11.1
2020-Feb-24 22:30 223 11.7
2020-Feb-24 22:15 222 12.2
2020-Feb-24 21:45 223 12.8
2020-Feb-24 21:30 223 12.8
2020-Feb-24 21:15 223 13.3
2020-Feb-24 20:45 222 14.4
2020-Feb-24 20:30 223 14.4
2020-Feb-24 20:15 221 15.0
2020-Feb-24 19:45 221 15.0
2020-Feb-24 19:30 232 15.6
2020-Feb-24 19:15 225 1 15.6
2020-Feb-24 18:45 236 1 16.7
2020-Feb-24 18:31 215 0 16.7
2020-Feb-24 17:45 205 1 18.3
2020-Feb-24 17:30 207 3 18.9
2020-Feb-24 17:15 225 4 18.9
2020-Feb-24 16:45 217 4 19.4
2020-Feb-24 16:30 181 2 20.0
2020-Feb-24 16:15 217 4 19.4
2020-Feb-24 15:45 183 2 20.0
2020-Feb-24 15:30 203 2 20.0
2020-Feb-24 15:15 229 2 20.0